Location: Unspecified
(0.0000°N, 0.0000°E)
Time: 03:34:58
(UTC+00:00)

LightSail 2 - Pass Details

Date: 14 November 2019
Orbit: 701 x 726 km, 24.0° (Epoch: 11 November)

Event Time Altitude Azimuth Distance (km) Brightness Sun altitude
Rises 19:57:59 0° 220° (SW) 3,074 9.3 -31.5°
Reaches altitude 10° 20:01:06 10° 202° (SSW) 2,155 8.1 -32.2°
Enters shadow 20:02:49 16° 183° (S) 1,803 7.4 -32.6°
